ROMMA est une association bénévole à but non lucratif. Votre soutien est indispensable : ADHERER à ROMMA ou FAIRE un DON

Taninges - (74, Haute-Savoie)

Vallée du Giffre (635 m)   Longitude: 06° 35' 38" E   Latitude: 46° 06' 21" N Station romma n°98
 

Détail journalier du     <<     >>

Température Humidité Pression Vent Dir Rafale Dir. rafale Ensol.
Heure (°C) (%) (hPa) (km/h) (km/h) (min)
01:00 12.2941018000
02:00 11.6951018000
03:00 10.996101703SSE0
04:00 9.895101702SSE0
05:00 9.59610171SSE5SSE0
06:00 9.496101703ENE0
07:00 8.997101802SE0
08:00 10.49710180020
09:00 14.295101803SE60
10:00 17.87710181SSE5SSE60
11:00 21.96310171S5S60
12:00 23.65810174OSO11OSO60
13:00 24.45310178OSO18OSO60
14:00 25.45510169SO18O60
15:00 26.851101510SO19OSO60
16:00 27.44210158OSO18SO60
17:00 27.44310158O18O60
18:00 27.44610156O16OSO60
19:00 25.25210155OSO11OSO60
20:00 21.86410164ENE13NE5
21:00 18.97810161ENE5ENE0
22:00 16.687101605E0
23:00 15.29010161SE5SE0
minuit 14.28910161SSO5SE0

Graphique du 26-08-2019

 

Serveur OMMA